• în România
  • Lista ţărilor
  • Pe 7 zile
  • Temperatura apei
  • Hartă satelitară
  • Meteo pe hartă
  • Widget-uri
  • user-avatar
    Intrare

    Meteo pe oră la Staraya Toropa

    Astăzi, 21 Septembrie, Vineri

    Timp Temperatura Precipitaţii Vânt Presiune Umiditate
    00:00 +14°C° 0 mm 1 m/s 745 mmHg 88%
    01:00 +14°C° 0 mm 1 m/s 745 mmHg 89%
    02:00 +14°C° 0 mm 2 m/s 746 mmHg 89%
    03:00 +14°C° 0 mm 2 m/s 746 mmHg 90%
    04:00 +14°C° 0 mm 2 m/s 746 mmHg 91%
    05:00 +14°C° 0 mm 2 m/s 746 mmHg 92%
    06:00 +15°C° 0 mm 2 m/s 746 mmHg 88%
    07:00 +16°C° 0 mm 2 m/s 746 mmHg 83%
    08:00 +18°C° 0 mm 2 m/s 746 mmHg 79%
    09:00 +20°C° 0 mm 3 m/s 746 mmHg 73%
    10:00 +22°C° 0 mm 3 m/s 746 mmHg 67%
    11:00 +24°C° 0 mm 3 m/s 746 mmHg 61%
    12:00 +25°C° 0 mm 3 m/s 746 mmHg 59%
    13:00 +26°C° 0 mm 3 m/s 746 mmHg 57%
    14:00 +27°C° 0 mm 3 m/s 746 mmHg 55%
    15:00 +25°C° 0 mm 3 m/s 745 mmHg 61%
    16:00 +24°C° 0 mm 3 m/s 745 mmHg 67%
    17:00 +23°C° 0 mm 2 m/s 745 mmHg 73%
    18:00 +21°C° 0 mm 2 m/s 745 mmHg 79%
    19:00 +20°C° 0 mm 2 m/s 745 mmHg 84%
    20:00 +18°C° 0 mm 3 m/s 744 mmHg 90%
    21:00 +18°C° 0 mm 3 m/s 744 mmHg 89%
    22:00 +18°C° 0 mm 3 m/s 744 mmHg 89%
    23:00 +17°C° 0 mm 3 m/s 744 mmHg 88%

    Mâine, 22 Septembrie, Sâmbătă

    Timp Temperatura Precipitaţii Vânt Presiune Umiditate
    00:00 +17°C° 0 mm 3 m/s 743 mmHg 86%
    01:00 +17°C° 0 mm 3 m/s 743 mmHg 84%
    02:00 +17°C° 0 mm 4 m/s 743 mmHg 81%
    03:00 +17°C° 0 mm 4 m/s 742 mmHg 81%
    04:00 +17°C° 0 mm 4 m/s 742 mmHg 80%
    05:00 +17°C° 0 mm 4 m/s 741 mmHg 79%
    06:00 +16°C° 0 mm 5 m/s 741 mmHg 74%
    07:00 +17°C° 0 mm 5 m/s 741 mmHg 70%
    08:00 +19°C° 0 mm 5 m/s 740 mmHg 66%
    09:00 +20°C° 0 mm 6 m/s 740 mmHg 61%
    10:00 +21°C° 0 mm 6 m/s 740 mmHg 56%
    11:00 +23°C° 0 mm 6 m/s 740 mmHg 51%
    12:00 +21°C° 0.2 mm 5 m/s 740 mmHg 59%
    13:00 +20°C° 0.2 mm 4 m/s 740 mmHg 67%
    14:00 +18°C° 0.2 mm 3 m/s 740 mmHg 74%
    15:00 +16°C° 0.1 mm 3 m/s 740 mmHg 77%
    16:00 +14°C° 0.1 mm 3 m/s 740 mmHg 80%
    17:00 +12°C° 0.1 mm 3 m/s 740 mmHg 84%
    18:00 +12°C° 0.5 mm 3 m/s 740 mmHg 86%
    19:00 +11°C° 0.5 mm 3 m/s 740 mmHg 88%
    20:00 +10°C° 0.5 mm 3 m/s 741 mmHg 89%
    21:00 +10°C° 0.7 mm 3 m/s 741 mmHg 91%
    22:00 +9°C° 0.7 mm 3 m/s 741 mmHg 92%
    23:00 +9°C° 0.7 mm 2 m/s 741 mmHg 94%

    Poimâine, 23 Septembrie, Duminică

    Timp Temperatura Precipitaţii Vânt Presiune Umiditate
    00:00 +9°C° 0.3 mm 2 m/s 741 mmHg 94%
    01:00 +9°C° 0.3 mm 2 m/s 741 mmHg 95%
    02:00 +9°C° 0.3 mm 2 m/s 740 mmHg 95%
    03:00 +9°C° 0.2 mm 2 m/s 740 mmHg 95%
    04:00 +9°C° 0.2 mm 2 m/s 740 mmHg 96%
    05:00 +9°C° 0.2 mm 2 m/s 740 mmHg 96%
    06:00 +9°C° 0 mm 2 m/s 740 mmHg 95%
    07:00 +9°C° 0 mm 2 m/s 740 mmHg 94%
    08:00 +9°C° 0 mm 2 m/s 739 mmHg 93%
    09:00 +10°C° 0 mm 2 m/s 739 mmHg 87%
    10:00 +11°C° 0 mm 3 m/s 739 mmHg 81%
    11:00 +12°C° 0 mm 3 m/s 739 mmHg 75%
    12:00 +13°C° 0.1 mm 3 m/s 739 mmHg 70%
    13:00 +14°C° 0.1 mm 3 m/s 739 mmHg 65%
    14:00 +14°C° 0.1 mm 3 m/s 739 mmHg 59%
    15:00 +13°C° 0.2 mm 3 m/s 738 mmHg 66%
    16:00 +12°C° 0.2 mm 3 m/s 738 mmHg 73%
    17:00 +11°C° 0.2 mm 3 m/s 738 mmHg 79%
    18:00 +10°C° 0 mm 2 m/s 738 mmHg 84%
    19:00 +9°C° 0 mm 2 m/s 738 mmHg 88%
    20:00 +8°C° 0 mm 2 m/s 739 mmHg 92%
    21:00 +8°C° 0 mm 3 m/s 739 mmHg 93%
    22:00 +8°C° 0 mm 3 m/s 739 mmHg 93%
    23:00 +8°C° 0 mm 3 m/s 739 mmHg 94%

    24 Septembrie, Luni

    Timp Temperatura Precipitaţii Vânt Presiune Umiditate
    00:00 +7°C° 0 mm 3 m/s 739 mmHg 94%
    01:00 +7°C° 0 mm 3 m/s 739 mmHg 94%
    02:00 +7°C° 0 mm 3 m/s 739 mmHg 95%
    03:00 +5°C° 0 mm 3 m/s 739 mmHg 96%
    04:00 +5°C° 0 mm 3 m/s 739 mmHg 96%
    05:00 +6°C° 0 mm 2 m/s 739 mmHg 97%
    06:00 +6°C° 0 mm 2 m/s 739 mmHg 96%
    07:00 +7°C° 0 mm 2 m/s 739 mmHg 94%
    08:00 +7°C° 0 mm 2 m/s 739 mmHg 92%
    09:00 +8°C° 0 mm 2 m/s 739 mmHg 87%
    10:00 +9°C° 0 mm 2 m/s 738 mmHg 81%
    11:00 +10°C° 0 mm 2 m/s 738 mmHg 76%
    12:00 +11°C° 0.1 mm 3 m/s 738 mmHg 73%
    13:00 +12°C° 0.1 mm 3 m/s 737 mmHg 70%
    14:00 +12°C° 0.1 mm 3 m/s 736 mmHg 68%
    15:00 +11°C° 1.1 mm 4 m/s 735 mmHg 75%
    16:00 +10°C° 1.1 mm 4 m/s 735 mmHg 82%
    17:00 +8°C° 1.1 mm 4 m/s 734 mmHg 90%
    18:00 +7°C° 1.6 mm 5 m/s 733 mmHg 90%
    19:00 +7°C° 1.6 mm 5 m/s 732 mmHg 91%
    20:00 +7°C° 1.6 mm 5 m/s 731 mmHg 92%
    21:00 +7°C° 1.7 mm 5 m/s 730 mmHg 92%
    22:00 +7°C° 1.7 mm 5 m/s 729 mmHg 93%
    23:00 +7°C° 1.7 mm 5 m/s 728 mmHg 93%

    25 Septembrie, Marţi

    Timp Temperatura Precipitaţii Vânt Presiune Umiditate
    00:00 +7°C° 3.4 mm 5 m/s 727 mmHg 93%
    01:00 +7°C° 3.4 mm 5 m/s 726 mmHg 94%
    02:00 +7°C° 3.4 mm 5 m/s 725 mmHg 94%
    03:00 +7°C° 2.5 mm 5 m/s 725 mmHg 94%
    04:00 +7°C° 2.5 mm 5 m/s 725 mmHg 94%
    05:00 +7°C° 2.5 mm 5 m/s 725 mmHg 94%
    06:00 +7°C° 1.4 mm 5 m/s 725 mmHg 94%
    07:00 +7°C° 1.4 mm 5 m/s 725 mmHg 94%
    08:00 +7°C° 1.4 mm 5 m/s 726 mmHg 94%
    09:00 +7°C° 1.6 mm 6 m/s 726 mmHg 93%
    10:00 +5°C° 1.6 mm 6 m/s 727 mmHg 92%
    11:00 +5°C° 1.6 mm 7 m/s 727 mmHg 92%
    12:00 +5°C° 1.4 mm 7 m/s 728 mmHg 91%
    13:00 +4°C° 1.4 mm 8 m/s 729 mmHg 90%
    14:00 +4°C° 1.4 mm 8 m/s 729 mmHg 90%
    15:00 +4°C° 1 mm 8 m/s 730 mmHg 89%
    16:00 +4°C° 1 mm 8 m/s 731 mmHg 89%
    17:00 +4°C° 1 mm 8 m/s 731 mmHg 88%
    18:00 +4°C° 0.6 mm 8 m/s 732 mmHg 87%
    19:00 +3°C° 0.6 mm 7 m/s 732 mmHg 86%
    20:00 +3°C° 0.6 mm 7 m/s 733 mmHg 85%
    21:00 +3°C° 0.2 mm 7 m/s 733 mmHg 84%
    22:00 +3°C° 0.2 mm 7 m/s 734 mmHg 83%
    23:00 +3°C° 0.2 mm 7 m/s 734 mmHg 82%

    26 Septembrie, Miercuri

    Timp Temperatura Precipitaţii Vânt Presiune Umiditate
    00:00 +2°C° 0.1 mm 7 m/s 734 mmHg 81%
    01:00 +2°C° 0.1 mm 7 m/s 735 mmHg 81%
    02:00 +2°C° 0.1 mm 6 m/s 735 mmHg 80%
    03:00 +2°C° 0.1 mm 6 m/s 736 mmHg 79%
    04:00 +1°C° 0.1 mm 6 m/s 736 mmHg 78%
    05:00 +1°C° 0.1 mm 6 m/s 737 mmHg 77%
    06:00 +1°C° 0 mm 6 m/s 737 mmHg 76%
    07:00 +2°C° 0 mm 6 m/s 738 mmHg 74%
    08:00 +2°C° 0 mm 6 m/s 738 mmHg 73%
    09:00 +3°C° 0 mm 6 m/s 739 mmHg 71%
    10:00 +3°C° 0 mm 6 m/s 740 mmHg 69%
    11:00 +4°C° 0 mm 6 m/s 740 mmHg 67%
    12:00 +4°C° 0.1 mm 6 m/s 741 mmHg 68%
    13:00 +4°C° 0.1 mm 6 m/s 742 mmHg 69%
    14:00 +4°C° 0.1 mm 6 m/s 742 mmHg 70%
    15:00 +5°C° 0.1 mm 5 m/s 743 mmHg 73%
    16:00 +3°C° 0.1 mm 5 m/s 744 mmHg 76%
    17:00 +4°C° 0.1 mm 4 m/s 744 mmHg 79%
    18:00 +4°C° 0 mm 4 m/s 745 mmHg 79%
    19:00 +4°C° 0 mm 3 m/s 746 mmHg 80%
    20:00 +4°C° 0 mm 3 m/s 747 mmHg 80%
    21:00 +3°C° 0 mm 3 m/s 747 mmHg 82%
    22:00 +2°C° 0 mm 3 m/s 747 mmHg 84%
    23:00 +2°C° 0 mm 2 m/s 748 mmHg 86%
    Arată mai mult